Tracking 19562 objects as of 24-Mar-2019
HD Live streaming from Space Station
objects crossing your sky now

COSMOS 2226

Track COSMOS 2226 now!
10-day predictions
COSMOS 2226 is classified as:


NORAD ID: 22282
Int'l Code: 1992-092A
Perigee: 1,484.7 km
Apogee: 1,532.1 km
Inclination: 73.6 °
Period: 116.0 minutes
Semi major axis: 7879 km
RCS: 8.9068 m2 (large)
Launch date: December 22, 1992
Source: Commonwealth of Independent States (former USSR) (CIS)
Launch site: PLESETSK MISSILE AND SPACE COMPLEX (PKMTR)
aabbcc
Your satellite tracking list
Your tracking list is empty




NASA's NSSDC Master Catalog

Two Line Element Set (TLE):
1 22282U 92092A   19083.09726545 -.00000015  00000-0  14091-4 0  9993
2 22282  73.6254  45.3085 0030066 215.7635 225.8551 12.41252592189597
Source of the keplerian elements: AFSPC